NOAA 17 DEB

Satellite information

Favourite Embed

Satellite Type and Status

DEBRISIN ORBIT

Key statistics

Satellite NOAA 17 DEB at a glance.

Uptime

8574

Days in orbit

Revolutions

≈ 14.5

Per day

Orbit

SSO

Sun Synchronous Orbit

Inclination

98.8

Latest

Satellite identification and parameters

Extended collection of information and parameters for NOAA 17 DEB.

Object identification

Identified? True

Debris? True

Object name: NOAA 17 DEB

International designator: 2002-032CH

Object number (NORAD): 48748

Object ID (CCSDS): 48748

Country: UNITED STATES OF AMERICA (US)

Current information (Y/N): Y

RCS size: SMALL

Orbital parameters

Period: 99.483 minutes

Inclination: 98.7507 deg

SMA: 7112.0 km

Apoapsis: 751.625 km

Periapsis: 716.105 km

RAAN: 316.0962 deg

Eccentricy: 0.00249714

Argument of periapsis: 86.6283 deg

Mean anomaly: 273.7765 deg

Mean motion: 14.47488526 rev/day

Mean motion (dot): 0.0001007 rev/day2

B* drag term: 0.0027392719 1/REarth

Two-line elements (TLE)

Creation date: Dec. 14, 2025, 3:07 a.m.

Reference frame: TEME

Reference center: EARTH

Epoch: Dec. 13, 2025, 3:46 p.m. UTC

TLE line 0: 0 NOAA 17 DEB

TLE line 1: 1 48748U 02032CH 25347.65709208 .00010070 00000-0 27393-2 0 9990

TLE line 2: 2 48748 98.7507 316.0962 0024971 86.6283 273.7765 14.47488526246314

Live tracking on map

Real-time ground track for satellite NOAA 17 DEB.

In-orbit conjunctions

A list of the most updated potential collisions computed for object NOAA 17 DEB.

Target Orbit TCA Probability of collision Miss distance Type
SL-8 R/B LEO 2025-03-08 17:01:45 0.0001117264 244.0 (m) ROCKET BODY
NOAA 16 DEB SSO 2024-09-26 19:22:31 0.0001671596 443.0 (m) DEBRIS

Associated space launch

NOAA M carried weather imagers and microwave and infrared sounders, as well as a SARSAT search-and-rescue package. It had an on-orbit mass of 1475 kg.

NOAA 17 DEB was lifted into orbit during the mission ‘Titan II SLV | NOAA 17’, on board a Titan II SLV space rocket.

The launch took place on June 24, 2002, 6:23 p.m. from Space Launch Complex 4W.

For more information about the launch, click the button.

Launch to space Titan II SLV | NOAA 17
Titan II SLV | NOAA 17

Agency: N/A

Status: Launch Successful

Launch date: June 24, 2002, 6:23 p.m. UTC

Rocket: Titan II SLV

Launch pad: Space Launch Complex 4W

Location: Vandenberg SFB, CA, USA

...

Latest news about this satellite

There are no fresh news available about this satellite. Check back as we update our databases every day.


Newsletter sign-up

Weekly statistics, charts and insights to help you stay on top of the space industry.